{"data":{"norad_id":58931,"intl_designator":"2024-027A","name":"STARLINK-31317","alt_names":[],"object_type":"PAYLOAD","status":"ACTIVE","operator":null,"country":"US","launch_date":"2024-02-10","launch_site_code":"AFWTR","launch_vehicle":null,"mission":null,"orbit_class":"UNKNOWN","rcs_meters":null,"size_class":null,"mass_kg":null,"dimensions":null,"purposes":["comms"],"wikipedia_slug":null,"has_3d_model":false,"image_url":null,"decayed_at":null,"tle_current":{"epoch":"2026-05-25T04:44:40.613856Z","epoch_age_seconds":52003,"freshness":"FRESH","line1":"1 58931U 24027A   26145.19769229 -.00002254  00000+0 -63992-4 0  9991","line2":"2 58931  53.1626 314.1353 0001447  95.1257 264.9909 15.30207503128888","mean_motion":15.30207503,"eccentricity":0.0001447,"inclination_deg":53.1626,"raan_deg":314.1353,"arg_perigee_deg":95.1257,"mean_anomaly_deg":264.9909,"bstar":-6.3992e-5,"rev_number":12888,"period_min":94.104884283789,"perigee_km":474.20099010249,"apogee_km":476.18434370809,"semimajor_km":6853.3296669053,"source":"CELESTRAK","updated_at":"2026-05-25T13:38:18.787893Z"}}}